Language selection

My Weather Profile Weather Topics  | 

Atlantic - Newfoundland: Past 24 Hour Conditions

 

West Chedabucto Bay - 44489

04:00 AM AST 28 November 2022Buoy position: 45.49N 61.14W
Disclaimer

This table is a summary of hourly weather conditions for the past 24 hours.
Please note that these observations might not always be representative of weather conditions over their associated marine area.

Date / Time
(AST)
Wind(knots) Wave height(m) Wave period(s) Pressure(kPa) Air tempC) Water tempC)
28 November 2022
4:00 SSE 10 gust 13 0.7 8.7 99.8 8 8
3:00 SE 10 gust 11 0.6 9.2 100.0 8 8
2:00 SSE 10 gust 13 0.7 8.5 100.1 8 8
1:00 SSW 9 gust 11 0.7 8.7 100.2 8 8
0:00 SW 16 gust 18 0.7 7.4 100.3 7 8
27 November 2022
23:00 SW 13 gust 16 0.7 8.6 100.4 7 8
22:00 SW 12 gust 15 0.7 6.7 100.4 6 8
21:00 SW 15 gust 17 0.8 10.6 100.5 6 8
20:00 SW 10 gust 12 0.8 11.7 100.5 6 8
19:00 WSW 5 gust 6 0.8 11.7 100.5 6 8
18:00 NW 5 gust 7 0.8 11.7 100.6 5 8
17:00 WNW 10 gust 12 0.8 11.5 100.6 6 8
16:00 NW 11 gust 13 0.7 10.1 100.6 5 8
15:00 NW 12 gust 16 0.7 9.1 100.5 6 8
14:00 NW 15 gust 19 0.7 6.5 100.5 5 8
13:00 NW 16 gust 20 0.7 6.4 100.5 5 8
12:00 NW 17 gust 22 0.7 7.2 100.5 5 8
11:00 NW 22 gust 26 0.8 5.1 100.5 5 8
10:00 NW 28 gust 32 0.9 5.1 100.3 5 8
9:00 NNW 16 gust 22 0.8 7.4 100.3 5 8
8:00 NNW 19 gust 26 0.8 6.7 100.3 5 8
7:00 NW 23 gust 31 0.9 7.1 100.2 5 8
6:00 NNW 22 gust 26 0.9 7.1 100.1 5 8
5:00 NNW 21 gust 25 1.0 7.8 100.1 5 8
4:00 NNW 20 gust 25 1.1 8.0 100.0 6 8

Zoom-in to make a selection

Map of Atlantic - Newfoundland marine weather areas Banquereau - 44139 East Chedabucto Bay - 44488 West Chedabucto Bay - 44489 Blanc-Sablon Airport Cap Whittle Chevery Natashquan Airport Heath Point Îles de la Madeleine Airport Miscou Island Eskasoni (First Nations) Grand Étang Ingonish Beach North Mountain St.Paul Island J.A. Douglas McCurdy Sydney Airport Charlottetown Airport East Point North Cape Argentia Berry Hill Bonavista Burgeo Cape Race Corner Brook Daniel's Harbour Englee Ferolle Point La Scie Port aux Basques Sagona Island St. Anthony Airport St. John's Int'l Airport St. Lawrence Stephenville Airport Twillingate Winterland Branch Hill Wreckhouse Grates Cove Pool's Island Marticot Island Long Pond Cartwright Airport Mary's Harbour
Legend:
buoy Buoy
land station Land Station

Atlantic - Newfoundland Area

Another Region

What we are doing

Date modified: